SCP
0 0 0 0 0 0 0 0 0 0 0 0 0 0 0 0 0 0 0 0 0 0 0 0 0 0 0 0 0 0 0 0 0 0 0 0 0 0 0 0 0 0 0 0 0 0 0 0 -0 0 0 0 0 -0
0 0 0 0 0 0 0 0 0 0 0 0 0 0 0 0 0 0 0 0 0 0 0 0 0 0 0 0 0 0 0 0 0 0 0 0 0 0 0 0 0 0 0 0 0 0 0 0 0 0 0 0 -0 -0
0 0 0 0 0 0 0 0 0 0 0 0 0 0 0 0 0 0 0 0 0 0 0 0 0 0 0 0 0 0 0 0 0 0 0 0 0 0 0 0 0 0 0 0 0 0 0 0 0 0 0 -0 -0 -0
0 0 0 0 0 0 0 0 0 0 0 0 0 0 0 0 0 0 0 0 0 0 0 0 0 0 0 0 0 0 0 0 0 0 0 0 0 0 0 0 0 0 0 0 0 0 -0 0 -0 -0 -0 -0 -0 -0
0 0 0 0 0 0 0 0 0 0 0 0 0 0 0 0 0 0 0 0 0 0 0 0 0 0 0 0 0 0 0 0 0 0 0 0 0 0 0 0 0 0 0 0 0 0 0 -0 -0 -0 -0 -0 -0 -0
0 0 0 0 0 0 0 0 0 0 0 0 0 0 0 0 0 0 0 0 0 0 0 0 0 0 0 0 0 0 0 0 0 0 0 0 0 0 0 0 0 0 0 0 0 -0 -0 -0 -0 -0 -0 -0 -0 0
0 0 0 0 0 0 0 0 0 0 0 0 0 0 0 0 0 0 0 0 0 0 0 0 0 0 0 0 0 0 0 0 0 0 0 0 0 0 0 0 0 0 0 0 -0 -0 -0 0 -0 -0 0 -0 -0 0
0 0 0 0 0 0 0 0 0 0 0 0 -0 0 -0 0 0 0 0 0 0 0 0 0 0 0 0 0 0 0 0 0 0 0 0 0 0 0 0 -0 0 0 0 0 0 -0 -0 -0 -0 0 0 0 0 0
0 0 0 0 0 0 0 0 0 0 0 0 -0 0 0 0 0 0 0 0 0 0 0 0 0 0 0 0 0 0 0 0 0 0 0 0 0 0 0 -0 0 0 0 -0 0 -0 -0 0 0 0 0 0 0 -0
0 0 0 0 0 0 0 0 0 0 0 0 0 0 0 0 0 0 0 0 0 0 0 0 0 0 0 0 0 0 0 0 0 0 0 0 0 0 0 0 0 0 0 0 0 0 0 0 0 0 0 0 0 -0
0 0 0 0 0 0 0 0 0 0 0 0 0 0 0 0 0 0 0 0 0 0 0 0 0 0 0 0 -0 0 0 0 0 -0 0 0 0 0 0 0 0 0 0 -0 0 0 0 0 0 0 0 0 0 0
0 0 0 0 0 0 0 0 0 0 0 0 0 0 0 0 0 0 0 0 0 0 0 0 0 0 0 0 -0 -0 0 0 -0 0 0 -0 0 0 0 0 0 0 -0 -0 0 0 0 0 0 0 0 0 0 0
0 0 0 0 0 0 0 0 0 0 0 0 0 0 0 0 0 0 0 0 0 0 -0 0 0 0 -0 0 0 0 0 -0 0 0 0 -0 0 0 0 -0 0 0 -0 -0 0 0 0 0 0 0 0 0 0 0
0 0 0 0 0 0 0 0 0 0 0 0 0 0 0 0 0 0 0 0 0 0 0 0 0 0 -0 -0 -0 0 0 0 0 0 -0 -0 0 0 0 -0 0 -0 -0 0 0 0 0 0 0 0 0 0 0 0
0 0 0 0 0 0 0 0 0 0 0 0 0 0 0 0 0 0 0 0 0 0 0 0 0 0 0 -0 -0 -0 0 0 -0 -0 -0 -0 0 0 -0 -0 0 -0 -0 0 0 0 0 0 0 0 0 0 0 0
0 0 0 0 0 0 0 0 0 0 0 0 0 0 0 0 0 0 0 0 0 0 0 -0 -0 -0 -0 0 0 0 0 0 -0 -0 -0 0 0 0 -0 -0 0 -0 -0 0 0 0 0 0 0 0 0 0 0 0
0 0 0 0 0 0 0 0 0 0 0 0 0 0 0 0 0 0 0 0 0 0 0 0 -0 -0 -0 0 0 0 0 0 0 -0 -0 0 0 0 -0 -0 0 -0 -0 0 0 0 0 0 0 0 0 0 0 0
0 0 0 0 0 0 0 0 0 0 0 0 0 0 0 0 0 0 0 0 0 0 0 0 0 0 0 0 0 0 0 0 0 -0 0 0 0 0 0 -0 0 -0 -0 0 0 0 0 0 0 0 0 0 0 0
0 0 0 0 0 0 0 0 0 0 0 0 0 0 0 0 0 0 0 0 0 0 0 0 0 0 0 0 -0 0 0 0 0 0 0 -0 -0 -0 0 0 0 -0 -0 0 0 0 0 0 0 0 0 0 0 0
0 0 0 0 0 0 0 0 0 0 0 0 0 0 0 0 0 0 0 0 0 0 0 0 0 0 0 0 0 0 0 0 0 0 0 0 0 -0 -0 0 0 0 -0 0 0 0 0 0 0 0 0 0 0 0
0 0 0 0 0 0 0 0 0 0 0 0 0 0 0 0 0 0 0 0 0 0 0 0 0 0 0 0 0 0 0 -0 -0 -0 -0 -0 0 0 0 -0 -0 0 0 0 0 0 0 0 0 0 0 0 0 0
0 0 0 0 0 0 0 0 0 0 0 0 0 0 0 0 0 0 0 0 0 0 0 0 0 0 0 0 0 0 0 0 0 0 0 -0 0 -0 -0 0 0 0 -0 0 0 0 0 0 0 0 0 0 0 0
0 0 0 0 0 0 0 0 0 0 0 0 0 0 0 -0 0 0 0 0 0 0 0 0 0 0 0 0 0 0 0 0 0 0 0 0 0 -0 -0 0 0 0 0 0 0 0 0 0 0 0 0 0 0 0
0 0 0 0 0 0 0 0 0 0 0 0 0 0 -0 0 0 0 0 0 0 0 0 0 0 0 0 0 0 0 0 0 0 0 0 -0 0 -0 -0 -0 0 0 0 0 0 0 0 0 0 0 0 0 0 0
0 0 0 -0 0 0 0 0 0 0 0 0 0 0 0 0 0 0 0 0 0 0 0 0 0 0 0 0 0 0 0 0 0 0 0 0 0 0 -0 -0 0 0 0 0 -0 0 0 0 0 0 0 0 0 0
0 0 0 0 0 0 0 0 0 -0 0 0 0 0 0 0 0 0 0 0 0 0 0 0 0 0 0 0 0 0 0 0 0 0 -0 0 0 -0 -0 -0 -0 0 0 0 0 -0 0 0 0 0 0 0 0 0
0 0 0 0 0 0 0 0 0 0 0 0 0 0 0 0 0 0 0 0 0 0 0 0 0 0 0 0 0 0 0 0 0 -0 0 0 0 0 0 0 0 0 0 0 0 0 0 0 0 0 0 0 0 0
0 0 0 0 0 0 0 0 0 0 0 0 0 0 0 0 0 0 0 0 0 0 0 0 0 0 0 0 0 0 0 0 0 0 0 0 0 0 0 0 0 -0 -0 0 0 0 0 0 0 0 0 0 0 0
0 0 0 0 0 0 0 0 0 -0 0 0 0 0 0 0 0 0 0 0 -0 0 0 0 0 0 0 0 0 0 0 0 0 0 0 0 0 -0 0 0 0 0 0 0 0 0 0 0 0 0 0 0 0 0
0 0 0 0 0 0 0 0 0 0 0 0 0 0 0 0 0 0 0 0 0 -0 -0 0 0 0 0 0 0 -0 0 0 0 -0 -0 0 0 0 0 0 0 0 0 0 0 0 0 0 0 0 0 0 0 0
0 0 0 0 0 0 0 0 0 0 0 0 0 0 0 0 0 0 0 -0 -0 -0 -0 -0 0 0 0 0 0 0 0 0 0 0 0 0 0 -0 0 0 0 0 0 0 0 0 0 0 0 0 0 0 0 0
0 0 0 0 0 0 0 0 0 0 0 0 0 0 0 0 0 0 0 0 -0 -0 -0 -0 0 0 -0 -0 -0 -0 -0 -0 -0 0 0 0 0 0 0 0 0 0 0 0 0 0 0 0 0 0 0 0 0 0
0 0 0 0 0 0 0 0 0 0 0 0 0 0 0 0 0 0 0 0 -0 -0 -0 -0 -0 -0 -0 0 -0 -0 -0 -0 -0 0 0 0 0 0 0 0 0 0 0 0 0 0 0 0 0 0 0 0 0 0
Wind_Speed_500mb
48 49 50 50 47 45 45 44 45 46 46 44 49 41 35 23 13 22 29 29 32 25 58 73 60 45 25 17 6 15 21 5 5 5 1 4 5 6 6 8 6 6 5 6 5 6 12 5 10 4 15 47 59 66
45 45 46 45 43 42 41 41 43 44 42 36 40 35 28 23 16 20 31 32 34 44 59 79 84 86 80 73 50 16 14 5 8 5 5 5 7 5 6 7 3 7 9 5 10 9 3 18 25 43 33 53 63 66
44 44 42 42 41 39 39 40 41 42 35 29 34 29 25 23 24 24 28 32 38 33 57 39 54 24 7 21 16 24 25 26 16 14 9 4 8 4 6 9 6 7 8 7 4 5 8 44 35 28 62 62 73 73
41 39 38 38 37 37 36 38 39 38 33 26 27 27 25 25 24 23 29 29 28 24 13 21 28 86 69 38 47 58 48 28 19 9 9 6 5 15 6 10 10 7 5 8 11 16 28 15 42 58 66 67 69 73
36 34 33 32 32 33 33 33 33 35 32 29 30 29 26 26 24 24 26 31 29 27 11 43 86 11 34 40 22 41 58 64 20 5 8 6 8 7 6 5 6 11 8 4 7 14 18 36 56 56 58 65 68 71
31 29 28 28 30 29 29 29 28 29 31 32 27 22 22 24 20 17 10 6 8 22 14 8 31 39 23 26 25 25 44 56 33 12 12 12 10 9 5 6 12 27 21 23 12 38 44 54 40 46 60 61 58 44
29 27 26 26 26 27 28 27 26 27 24 27 28 28 29 29 24 16 10 22 35 18 9 14 14 14 38 24 4 14 33 28 25 15 13 11 17 15 5 12 1 9 17 24 24 28 26 23 37 50 48 46 30 18
27 27 28 27 26 27 28 30 29 30 32 27 27 32 36 31 17 4 2 13 13 19 10 6 10 22 19 15 8 8 15 19 21 12 7 7 7 9 9 13 14 14 17 14 18 20 31 36 36 36 36 28 31 32
26 26 28 28 27 27 30 31 32 33 32 25 25 33 20 1 5 14 31 34 24 15 7 7 5 8 25 13 14 6 12 7 11 6 7 8 5 8 12 10 8 11 8 12 17 19 22 27 32 37 31 28 31 35
25 26 27 27 26 26 29 32 34 34 31 20 19 9 6 2 24 39 8 3 4 6 8 8 8 7 16 10 10 5 6 5 5 8 7 5 6 3 4 2 8 8 9 8 17 18 26 31 33 31 25 25 28 29
25 24 25 25 26 30 31 33 33 31 24 12 10 8 18 37 18 6 5 6 5 5 10 12 16 10 15 7 6 7 4 3 3 6 4 2 6 3 9 3 6 8 9 7 7 9 14 15 23 24 20 20 28 36
25 24 22 22 25 28 28 26 26 20 19 13 18 26 17 6 5 5 3 5 8 5 4 7 18 22 13 11 7 9 4 1 9 3 1 6 5 8 11 2 2 6 9 9 9 11 13 12 15 13 14 18 33 41
25 25 24 20 22 24 21 22 16 23 16 10 6 6 4 4 5 6 4 5 4 4 8 18 14 11 8 8 13 5 6 8 2 1 6 5 4 14 8 0 5 6 12 10 12 11 12 12 10 10 13 19 23 35
26 27 25 24 24 18 21 13 13 9 4 5 5 9 7 8 9 8 7 3 10 12 30 45 18 9 11 8 4 5 7 1 3 2 6 3 8 10 6 1 5 9 13 11 13 13 15 15 15 12 15 22 27 34
22 26 23 19 22 22 25 18 8 2 4 6 7 9 10 20 18 17 19 29 35 36 30 31 16 8 6 8 5 7 5 6 6 5 5 5 13 9 6 6 4 11 15 11 12 18 19 17 15 17 18 22 27 33
22 23 11 8 12 19 21 22 13 14 8 9 15 11 19 15 21 18 17 19 27 26 31 9 6 4 7 7 7 6 9 5 6 5 11 12 9 8 6 7 8 15 15 15 16 18 20 17 17 21 25 28 35 40
22 20 13 15 16 16 14 10 4 10 10 11 16 30 35 35 31 33 29 17 13 26 4 5 6 9 6 7 5 10 5 3 13 11 5 6 4 8 8 10 14 19 17 20 19 18 24 23 23 25 28 35 38 46
29 20 15 16 15 21 12 12 9 11 15 24 16 30 41 45 38 42 49 43 32 11 8 6 12 5 6 6 4 2 13 28 20 5 6 3 5 14 10 14 15 19 18 16 18 21 26 27 27 27 26 30 35 40
24 18 9 13 12 11 6 7 13 10 21 23 32 37 39 45 54 56 54 46 38 29 14 8 9 6 6 2 9 37 35 32 17 5 7 5 8 15 20 18 18 21 18 18 21 21 26 27 29 28 27 29 32 41
20 15 12 12 15 8 6 10 12 12 11 13 27 33 27 32 43 42 39 35 30 13 16 10 11 18 17 23 27 36 35 30 20 15 10 14 14 18 18 21 27 28 20 14 17 23 24 25 20 27 27 27 33 40
16 13 12 20 26 22 10 11 14 14 17 16 24 26 20 29 40 45 43 40 32 16 14 41 39 43 33 33 25 32 36 31 23 21 5 16 24 22 19 18 26 25 22 26 18 19 24 22 23 24 30 34 37 38
14 12 10 11 18 12 16 19 14 14 14 22 31 29 21 11 14 16 14 20 16 40 52 53 53 50 53 60 54 45 41 28 13 16 10 10 31 31 26 20 30 24 20 22 32 33 28 28 25 26 32 35 37 36
15 10 7 9 14 14 12 15 13 11 7 9 8 7 9 8 8 13 10 17 21 40 53 61 63 60 56 50 47 45 35 21 14 17 7 11 18 25 26 27 27 27 25 22 28 32 31 28 25 29 34 28 36 34
14 8 7 9 15 9 8 11 13 11 11 8 6 8 6 7 10 9 6 8 11 22 24 37 40 39 42 43 39 22 14 13 14 10 7 17 24 24 23 23 24 18 19 28 29 31 40 38 35 37 38 36 36 37
10 10 9 13 13 10 9 8 10 8 9 10 7 8 5 9 5 5 4 7 17 14 9 28 35 31 29 24 18 13 14 12 6 5 10 19 21 24 24 24 22 18 16 25 25 31 41 47 47 49 45 40 36 31
10 14 16 10 9 9 9 7 7 1 5 6 9 10 9 6 4 3 4 12 14 14 10 13 26 27 18 12 15 16 19 13 6 2 14 24 28 31 28 25 27 27 22 23 21 27 45 50 42 58 42 32 31 33
7 10 19 20 15 12 9 18 19 10 9 8 5 6 5 4 4 6 9 17 21 17 12 10 8 9 13 9 11 11 15 14 9 8 6 13 17 26 26 22 25 24 25 25 30 25 28 47 47 55 42 28 29 30
14 11 10 9 15 20 7 6 5 6 4 8 9 5 6 6 5 6 12 24 35 37 39 36 31 23 17 12 14 16 21 21 15 6 6 11 13 18 24 21 15 21 27 23 22 37 25 35 42 37 31 33 35 32
13 12 10 22 19 15 11 10 8 8 6 8 4 3 4 5 12 20 31 35 35 36 38 37 35 30 27 20 18 18 13 8 9 12 12 14 19 20 24 24 20 22 29 33 28 19 34 42 35 25 23 29 35 36
14 22 13 12 8 7 12 11 13 15 26 28 9 2 28 46 34 29 30 25 30 34 31 28 27 23 24 21 21 18 11 3 6 14 23 26 26 19 22 28 30 27 29 32 35 29 24 35 38 38 36 32 36 43
11 11 12 12 8 6 10 23 32 20 3 3 17 23 23 30 47 40 35 33 35 34 29 30 33 33 31 33 30 24 20 16 15 16 23 28 21 21 22 28 29 31 31 35 46 41 36 29 33 36 33 36 39 37
12 18 11 5 5 14 22 11 13 9 14 8 19 36 37 25 13 18 22 23 32 37 35 28 27 28 28 30 32 35 35 34 30 24 18 17 20 15 19 31 33 36 34 31 38 51 45 36 32 36 36 34 36 35
17 18 12 4 8 9 6 6 7 6 12 10 8 13 11 7 9 8 13 23 29 25 22 22 22 20 20 21 23 29 37 39 35 19 12 4 9 16 20 28 30 38 46 47 41 51 47 48 40 31 35 30 29 31
Wind_Direction_500mb
302 306 309 310 313 315 316 320 324 329 333 333 341 343 337 323 306 287 276 282 268 254 278 280 275 267 252 228 218 297 333 277 333 62 135 250 243 275 295 253 243 270 282 246 241 266 286 324 287 354 295 301 306 306
298 302 305 308 309 310 314 318 325 328 330 330 340 344 342 326 313 303 277 291 285 254 272 286 285 279 271 267 264 242 240 299 258 101 228 265 264 241 252 277 161 262 208 269 211 241 193 291 271 298 292 304 307 306
299 301 303 304 305 308 311 317 325 328 330 330 341 339 339 332 321 307 298 298 289 284 297 280 300 300 286 273 247 221 239 223 225 231 190 233 245 211 233 235 253 252 170 239 300 232 282 304 317 321 316 307 310 313
295 298 299 301 304 306 310 315 323 330 330 331 337 334 330 321 313 298 287 299 288 283 290 293 301 305 302 284 252 247 237 218 225 226 221 232 223 203 237 253 249 250 170 236 251 285 304 264 317 319 317 318 318 327
294 296 300 304 308 309 309 314 323 332 336 338 329 330 328 329 317 304 294 284 285 271 281 294 308 333 304 309 274 237 235 229 242 249 224 235 226 233 230 258 244 190 216 233 273 289 289 292 305 321 317 316 324 321
287 292 302 310 315 317 312 316 319 331 339 334 331 331 338 327 318 319 312 347 6 323 297 303 302 305 341 320 269 244 224 226 219 229 226 231 224 207 266 250 249 225 237 291 268 295 296 298 317 322 319 324 331 340
284 289 298 308 318 323 319 313 315 313 321 330 325 315 314 317 309 289 274 298 309 300 276 297 284 292 328 330 302 202 215 213 211 224 237 242 247 234 234 268 354 257 271 297 297 306 301 312 319 327 331 337 0 41
283 290 296 300 310 317 323 321 318 318 315 314 317 308 309 308 305 11 5 327 319 270 261 279 279 311 348 315 312 181 169 201 206 226 240 218 212 212 255 267 284 299 297 301 312 310 301 321 337 346 350 10 43 60
281 290 296 303 312 315 317 318 316 321 326 321 314 311 315 342 353 340 314 304 283 242 274 246 285 281 332 312 292 247 194 201 212 224 229 195 181 231 240 251 299 300 312 299 329 336 343 348 355 2 16 48 67 68
279 288 296 306 312 310 314 320 322 322 333 338 324 304 280 295 318 313 300 222 207 222 238 258 256 268 307 307 289 322 257 242 236 231 171 216 249 286 215 269 343 326 336 329 319 344 350 356 4 7 23 57 84 87
275 284 293 304 310 314 318 321 323 326 341 0 325 283 294 311 305 230 233 214 176 246 232 247 244 257 270 233 276 257 292 277 311 273 148 262 277 266 191 1 356 325 342 343 327 354 355 360 6 16 52 76 95 107
275 279 286 298 306 311 320 325 328 333 328 316 306 306 312 307 256 273 254 216 203 250 206 250 274 249 266 245 261 261 288 359 251 156 212 285 260 181 175 45 27 20 33 60 45 38 24 30 20 31 84 92 105 113
270 281 291 295 295 303 308 309 333 322 327 333 318 281 251 260 263 253 208 242 253 264 244 305 293 265 270 239 273 271 240 235 73 58 234 236 154 170 187 36 97 63 81 87 67 64 81 49 33 61 91 110 109 106
281 289 294 300 303 303 310 356 356 337 334 301 296 280 233 216 232 205 195 256 270 261 298 310 287 255 257 238 243 255 259 71 331 305 251 327 175 172 193 122 131 100 97 86 97 94 96 75 97 81 111 117 123 117
276 281 292 292 281 284 308 314 313 275 241 251 232 245 242 243 265 265 276 289 296 315 311 314 282 251 279 268 203 253 261 247 195 236 302 8 156 165 160 152 142 114 105 94 105 116 103 90 101 112 125 128 127 127
279 288 297 263 280 306 321 311 284 204 222 231 232 250 254 277 268 259 276 274 309 335 329 269 266 282 253 279 224 223 325 36 300 303 339 143 164 149 138 147 148 136 126 124 112 120 119 118 121 129 131 130 129 130
272 282 238 258 296 309 324 309 267 210 232 232 241 243 254 274 272 273 283 289 300 331 274 290 268 239 262 267 331 355 357 321 309 342 133 151 164 149 143 149 146 146 131 135 124 119 130 134 123 117 123 129 135 140
262 278 257 251 290 327 297 236 241 237 238 242 249 251 237 247 256 267 275 281 286 271 256 241 308 264 240 256 295 294 310 314 312 345 161 155 163 145 135 149 149 150 144 137 132 133 140 141 138 134 132 133 139 144
274 281 252 214 275 306 293 253 215 258 247 258 261 261 260 266 269 274 277 280 277 264 269 250 251 224 224 214 328 303 300 314 298 263 179 182 162 152 152 148 158 157 156 158 154 138 135 148 144 138 149 152 146 151
260 260 258 208 242 255 252 252 238 265 261 254 250 259 250 257 280 282 280 272 258 231 203 218 214 213 207 266 294 297 301 307 290 215 178 172 171 165 156 156 158 154 155 151 158 147 148 148 151 164 162 153 150 156
250 263 245 225 233 233 252 258 237 252 265 254 270 273 264 265 264 266 261 261 219 210 230 232 242 240 249 273 270 282 302 311 290 259 269 185 183 182 172 153 164 169 163 167 170 179 168 171 170 171 168 166 171 171
247 238 245 249 214 217 252 238 245 281 276 260 278 261 254 256 252 251 240 194 220 228 229 234 239 243 246 251 263 285 291 299 273 230 242 180 174 183 187 174 170 165 166 172 172 176 181 173 172 170 178 174 174 172
236 238 235 223 209 224 253 225 229 233 250 256 251 245 240 241 243 261 231 220 232 243 243 242 245 242 248 258 267 279 287 272 256 231 236 182 192 193 189 182 173 166 176 180 182 176 178 181 184 178 177 171 165 167
224 202 224 226 218 259 248 226 225 247 246 247 256 261 243 214 241 241 253 257 243 278 265 235 234 232 237 247 259 259 252 216 199 217 222 188 189 197 186 173 176 164 171 179 182 182 180 177 177 168 167 163 163 163
208 223 199 235 229 222 227 248 214 224 246 221 249 252 267 227 240 230 242 299 329 350 208 197 211 221 236 251 222 217 193 170 148 280 207 188 190 197 191 183 187 184 179 170 172 182 179 176 178 169 169 175 180 172
220 210 200 223 219 202 225 253 235 258 289 262 248 244 210 224 251 237 333 332 353 32 76 180 202 218 217 238 242 223 188 167 172 198 187 186 192 203 189 182 187 191 197 202 176 165 179 185 184 167 161 169 176 181
233 237 224 233 249 274 277 261 256 246 245 245 280 293 282 294 334 43 46 59 53 67 94 118 154 195 218 227 162 158 180 182 130 91 118 172 186 200 204 193 206 206 194 205 211 193 170 188 188 176 166 166 176 182
242 258 232 225 229 229 258 266 251 255 233 258 296 284 306 330 13 84 61 86 70 80 84 82 77 78 95 140 180 190 175 179 177 135 126 157 182 193 200 215 233 215 207 191 205 210 185 168 171 175 183 192 188 188
235 236 254 263 256 237 244 217 225 242 263 312 276 255 258 0 109 115 108 103 96 89 83 78 72 64 70 78 89 99 122 175 214 236 241 222 207 208 204 197 200 212 215 207 198 212 203 194 193 178 176 198 202 196
244 234 230 250 233 249 231 247 271 294 317 303 266 22 71 67 106 116 108 94 79 66 60 59 61 66 73 75 77 85 93 108 257 263 261 258 260 257 227 216 205 200 203 206 199 195 187 198 218 214 213 201 204 205
253 208 224 242 270 293 305 305 303 301 242 61 86 83 81 89 83 85 88 80 69 59 59 63 61 59 59 58 55 52 42 13 334 304 272 271 266 246 236 229 215 203 201 204 202 201 205 204 202 210 204 204 204 202
222 213 218 259 309 312 314 313 342 38 134 90 82 104 101 85 74 62 66 68 65 56 55 55 51 49 43 37 32 29 19 3 348 323 301 271 227 247 215 203 202 203 204 205 202 200 194 201 204 202 202 195 195 198
223 238 242 229 351 324 301 356 46 51 64 78 75 86 77 74 85 99 74 60 53 45 50 49 47 47 40 30 23 14 12 10 10 10 11 123 195 217 218 204 200 213 219 215 206 207 206 206 211 209 203 202 209 209
Wind_Speed_850mb
48 49 50 50 47 45 45 44 45 46 46 44 49 41 35 23 13 22 29 29 32 25 58 73 60 45 25 17 6 15 21 5 5 5 1 4 5 6 6 8 6 6 5 6 5 6 12 5 10 4 15 47 59 66
45 45 46 45 43 42 41 41 43 44 42 36 40 35 28 23 16 20 31 32 34 44 59 79 84 86 80 73 50 16 14 5 8 5 5 5 7 5 6 7 3 7 9 5 10 9 3 18 25 43 33 53 63 66
44 44 42 42 41 39 39 40 41 42 35 29 34 29 25 23 24 24 28 32 38 33 57 39 54 24 7 21 16 24 25 26 16 14 9 4 8 4 6 9 6 7 8 7 4 5 8 44 35 28 62 62 73 73
41 39 38 38 37 37 36 38 39 38 33 26 27 27 25 25 24 23 29 29 28 24 13 21 28 86 69 38 47 58 48 28 19 9 9 6 5 15 6 10 10 7 5 8 11 16 28 15 42 58 66 67 69 73
36 34 33 32 32 33 33 33 33 35 32 29 30 29 26 26 24 24 26 31 29 27 11 43 86 11 34 40 22 41 58 64 20 5 8 6 8 7 6 5 6 11 8 4 7 14 18 36 56 56 58 65 68 71
31 29 28 28 30 29 29 29 28 29 31 32 27 22 22 24 20 17 10 6 8 22 14 8 31 39 23 26 25 25 44 56 33 12 12 12 10 9 5 6 12 27 21 23 12 38 44 54 40 46 60 61 58 44
29 27 26 26 26 27 28 27 26 27 24 27 28 28 29 29 24 16 10 22 35 18 9 14 14 14 38 24 4 14 33 28 25 15 13 11 17 15 5 12 1 9 17 24 24 28 26 23 37 50 48 46 30 18
27 27 28 27 26 27 28 30 29 30 32 27 27 32 36 31 17 4 2 13 13 19 10 6 10 22 19 15 8 8 15 19 21 12 7 7 7 9 9 13 14 14 17 14 18 20 31 36 36 36 36 28 31 32
26 26 28 28 27 27 30 31 32 33 32 25 25 33 20 1 5 14 31 34 24 15 7 7 5 8 25 13 14 6 12 7 11 6 7 8 5 8 12 10 8 11 8 12 17 19 22 27 32 37 31 28 31 35
25 26 27 27 26 26 29 32 34 34 31 20 19 9 6 2 24 39 8 3 4 6 8 8 8 7 16 10 10 5 6 5 5 8 7 5 6 3 4 2 8 8 9 8 17 18 26 31 33 31 25 25 28 29
25 24 25 25 26 30 31 33 33 31 24 12 10 8 18 37 18 6 5 6 5 5 10 12 16 10 15 7 6 7 4 3 3 6 4 2 6 3 9 3 6 8 9 7 7 9 14 15 23 24 20 20 28 36
25 24 22 22 25 28 28 26 26 20 19 13 18 26 17 6 5 5 3 5 8 5 4 7 18 22 13 11 7 9 4 1 9 3 1 6 5 8 11 2 2 6 9 9 9 11 13 12 15 13 14 18 33 41
25 25 24 20 22 24 21 22 16 23 16 10 6 6 4 4 5 6 4 5 4 4 8 18 14 11 8 8 13 5 6 8 2 1 6 5 4 14 8 0 5 6 12 10 12 11 12 12 10 10 13 19 23 35
26 27 25 24 24 18 21 13 13 9 4 5 5 9 7 8 9 8 7 3 10 12 30 45 18 9 11 8 4 5 7 1 3 2 6 3 8 10 6 1 5 9 13 11 13 13 15 15 15 12 15 22 27 34
22 26 23 19 22 22 25 18 8 2 4 6 7 9 10 20 18 17 19 29 35 36 30 31 16 8 6 8 5 7 5 6 6 5 5 5 13 9 6 6 4 11 15 11 12 18 19 17 15 17 18 22 27 33
22 23 11 8 12 19 21 22 13 14 8 9 15 11 19 15 21 18 17 19 27 26 31 9 6 4 7 7 7 6 9 5 6 5 11 12 9 8 6 7 8 15 15 15 16 18 20 17 17 21 25 28 35 40
22 20 13 15 16 16 14 10 4 10 10 11 16 30 35 35 31 33 29 17 13 26 4 5 6 9 6 7 5 10 5 3 13 11 5 6 4 8 8 10 14 19 17 20 19 18 24 23 23 25 28 35 38 46
29 20 15 16 15 21 12 12 9 11 15 24 16 30 41 45 38 42 49 43 32 11 8 6 12 5 6 6 4 2 13 28 20 5 6 3 5 14 10 14 15 19 18 16 18 21 26 27 27 27 26 30 35 40
24 18 9 13 12 11 6 7 13 10 21 23 32 37 39 45 54 56 54 46 38 29 14 8 9 6 6 2 9 37 35 32 17 5 7 5 8 15 20 18 18 21 18 18 21 21 26 27 29 28 27 29 32 41
20 15 12 12 15 8 6 10 12 12 11 13 27 33 27 32 43 42 39 35 30 13 16 10 11 18 17 23 27 36 35 30 20 15 10 14 14 18 18 21 27 28 20 14 17 23 24 25 20 27 27 27 33 40
16 13 12 20 26 22 10 11 14 14 17 16 24 26 20 29 40 45 43 40 32 16 14 41 39 43 33 33 25 32 36 31 23 21 5 16 24 22 19 18 26 25 22 26 18 19 24 22 23 24 30 34 37 38
14 12 10 11 18 12 16 19 14 14 14 22 31 29 21 11 14 16 14 20 16 40 52 53 53 50 53 60 54 45 41 28 13 16 10 10 31 31 26 20 30 24 20 22 32 33 28 28 25 26 32 35 37 36
15 10 7 9 14 14 12 15 13 11 7 9 8 7 9 8 8 13 10 17 21 40 53 61 63 60 56 50 47 45 35 21 14 17 7 11 18 25 26 27 27 27 25 22 28 32 31 28 25 29 34 28 36 34
14 8 7 9 15 9 8 11 13 11 11 8 6 8 6 7 10 9 6 8 11 22 24 37 40 39 42 43 39 22 14 13 14 10 7 17 24 24 23 23 24 18 19 28 29 31 40 38 35 37 38 36 36 37
10 10 9 13 13 10 9 8 10 8 9 10 7 8 5 9 5 5 4 7 17 14 9 28 35 31 29 24 18 13 14 12 6 5 10 19 21 24 24 24 22 18 16 25 25 31 41 47 47 49 45 40 36 31
10 14 16 10 9 9 9 7 7 1 5 6 9 10 9 6 4 3 4 12 14 14 10 13 26 27 18 12 15 16 19 13 6 2 14 24 28 31 28 25 27 27 22 23 21 27 45 50 42 58 42 32 31 33
7 10 19 20 15 12 9 18 19 10 9 8 5 6 5 4 4 6 9 17 21 17 12 10 8 9 13 9 11 11 15 14 9 8 6 13 17 26 26 22 25 24 25 25 30 25 28 47 47 55 42 28 29 30
14 11 10 9 15 20 7 6 5 6 4 8 9 5 6 6 5 6 12 24 35 37 39 36 31 23 17 12 14 16 21 21 15 6 6 11 13 18 24 21 15 21 27 23 22 37 25 35 42 37 31 33 35 32
13 12 10 22 19 15 11 10 8 8 6 8 4 3 4 5 12 20 31 35 35 36 38 37 35 30 27 20 18 18 13 8 9 12 12 14 19 20 24 24 20 22 29 33 28 19 34 42 35 25 23 29 35 36
14 22 13 12 8 7 12 11 13 15 26 28 9 2 28 46 34 29 30 25 30 34 31 28 27 23 24 21 21 18 11 3 6 14 23 26 26 19 22 28 30 27 29 32 35 29 24 35 38 38 36 32 36 43
11 11 12 12 8 6 10 23 32 20 3 3 17 23 23 30 47 40 35 33 35 34 29 30 33 33 31 33 30 24 20 16 15 16 23 28 21 21 22 28 29 31 31 35 46 41 36 29 33 36 33 36 39 37
12 18 11 5 5 14 22 11 13 9 14 8 19 36 37 25 13 18 22 23 32 37 35 28 27 28 28 30 32 35 35 34 30 24 18 17 20 15 19 31 33 36 34 31 38 51 45 36 32 36 36 34 36 35
17 18 12 4 8 9 6 6 7 6 12 10 8 13 11 7 9 8 13 23 29 25 22 22 22 20 20 21 23 29 37 39 35 19 12 4 9 16 20 28 30 38 46 47 41 51 47 48 40 31 35 30 29 31
Wind_Direction_850mb
302 306 309 310 313 315 316 320 324 329 333 333 341 343 337 323 306 287 276 282 268 254 278 280 275 267 252 228 218 297 333 277 333 62 135 250 243 275 295 253 243 270 282 246 241 266 286 324 287 354 295 301 306 306
298 302 305 308 309 310 314 318 325 328 330 330 340 344 342 326 313 303 277 291 285 254 272 286 285 279 271 267 264 242 240 299 258 101 228 265 264 241 252 277 161 262 208 269 211 241 193 291 271 298 292 304 307 306
299 301 303 304 305 308 311 317 325 328 330 330 341 339 339 332 321 307 298 298 289 284 297 280 300 300 286 273 247 221 239 223 225 231 190 233 245 211 233 235 253 252 170 239 300 232 282 304 317 321 316 307 310 313
295 298 299 301 304 306 310 315 323 330 330 331 337 334 330 321 313 298 287 299 288 283 290 293 301 305 302 284 252 247 237 218 225 226 221 232 223 203 237 253 249 250 170 236 251 285 304 264 317 319 317 318 318 327
294 296 300 304 308 309 309 314 323 332 336 338 329 330 328 329 317 304 294 284 285 271 281 294 308 333 304 309 274 237 235 229 242 249 224 235 226 233 230 258 244 190 216 233 273 289 289 292 305 321 317 316 324 321
287 292 302 310 315 317 312 316 319 331 339 334 331 331 338 327 318 319 312 347 6 323 297 303 302 305 341 320 269 244 224 226 219 229 226 231 224 207 266 250 249 225 237 291 268 295 296 298 317 322 319 324 331 340
284 289 298 308 318 323 319 313 315 313 321 330 325 315 314 317 309 289 274 298 309 300 276 297 284 292 328 330 302 202 215 213 211 224 237 242 247 234 234 268 354 257 271 297 297 306 301 312 319 327 331 337 0 41
283 290 296 300 310 317 323 321 318 318 315 314 317 308 309 308 305 11 5 327 319 270 261 279 279 311 348 315 312 181 169 201 206 226 240 218 212 212 255 267 284 299 297 301 312 310 301 321 337 346 350 10 43 60
281 290 296 303 312 315 317 318 316 321 326 321 314 311 315 342 353 340 314 304 283 242 274 246 285 281 332 312 292 247 194 201 212 224 229 195 181 231 240 251 299 300 312 299 329 336 343 348 355 2 16 48 67 68
279 288 296 306 312 310 314 320 322 322 333 338 324 304 280 295 318 313 300 222 207 222 238 258 256 268 307 307 289 322 257 242 236 231 171 216 249 286 215 269 343 326 336 329 319 344 350 356 4 7 23 57 84 87
275 284 293 304 310 314 318 321 323 326 341 0 325 283 294 311 305 230 233 214 176 246 232 247 244 257 270 233 276 257 292 277 311 273 148 262 277 266 191 1 356 325 342 343 327 354 355 360 6 16 52 76 95 107
275 279 286 298 306 311 320 325 328 333 328 316 306 306 312 307 256 273 254 216 203 250 206 250 274 249 266 245 261 261 288 359 251 156 212 285 260 181 175 45 27 20 33 60 45 38 24 30 20 31 84 92 105 113
270 281 291 295 295 303 308 309 333 322 327 333 318 281 251 260 263 253 208 242 253 264 244 305 293 265 270 239 273 271 240 235 73 58 234 236 154 170 187 36 97 63 81 87 67 64 81 49 33 61 91 110 109 106
281 289 294 300 303 303 310 356 356 337 334 301 296 280 233 216 232 205 195 256 270 261 298 310 287 255 257 238 243 255 259 71 331 305 251 327 175 172 193 122 131 100 97 86 97 94 96 75 97 81 111 117 123 117
276 281 292 292 281 284 308 314 313 275 241 251 232 245 242 243 265 265 276 289 296 315 311 314 282 251 279 268 203 253 261 247 195 236 302 8 156 165 160 152 142 114 105 94 105 116 103 90 101 112 125 128 127 127
279 288 297 263 280 306 321 311 284 204 222 231 232 250 254 277 268 259 276 274 309 335 329 269 266 282 253 279 224 223 325 36 300 303 339 143 164 149 138 147 148 136 126 124 112 120 119 118 121 129 131 130 129 130
272 282 238 258 296 309 324 309 267 210 232 232 241 243 254 274 272 273 283 289 300 331 274 290 268 239 262 267 331 355 357 321 309 342 133 151 164 149 143 149 146 146 131 135 124 119 130 134 123 117 123 129 135 140
262 278 257 251 290 327 297 236 241 237 238 242 249 251 237 247 256 267 275 281 286 271 256 241 308 264 240 256 295 294 310 314 312 345 161 155 163 145 135 149 149 150 144 137 132 133 140 141 138 134 132 133 139 144
274 281 252 214 275 306 293 253 215 258 247 258 261 261 260 266 269 274 277 280 277 264 269 250 251 224 224 214 328 303 300 314 298 263 179 182 162 152 152 148 158 157 156 158 154 138 135 148 144 138 149 152 146 151
260 260 258 208 242 255 252 252 238 265 261 254 250 259 250 257 280 282 280 272 258 231 203 218 214 213 207 266 294 297 301 307 290 215 178 172 171 165 156 156 158 154 155 151 158 147 148 148 151 164 162 153 150 156
250 263 245 225 233 233 252 258 237 252 265 254 270 273 264 265 264 266 261 261 219 210 230 232 242 240 249 273 270 282 302 311 290 259 269 185 183 182 172 153 164 169 163 167 170 179 168 171 170 171 168 166 171 171
247 238 245 249 214 217 252 238 245 281 276 260 278 261 254 256 252 251 240 194 220 228 229 234 239 243 246 251 263 285 291 299 273 230 242 180 174 183 187 174 170 165 166 172 172 176 181 173 172 170 178 174 174 172
236 238 235 223 209 224 253 225 229 233 250 256 251 245 240 241 243 261 231 220 232 243 243 242 245 242 248 258 267 279 287 272 256 231 236 182 192 193 189 182 173 166 176 180 182 176 178 181 184 178 177 171 165 167
224 202 224 226 218 259 248 226 225 247 246 247 256 261 243 214 241 241 253 257 243 278 265 235 234 232 237 247 259 259 252 216 199 217 222 188 189 197 186 173 176 164 171 179 182 182 180 177 177 168 167 163 163 163
208 223 199 235 229 222 227 248 214 224 246 221 249 252 267 227 240 230 242 299 329 350 208 197 211 221 236 251 222 217 193 170 148 280 207 188 190 197 191 183 187 184 179 170 172 182 179 176 178 169 169 175 180 172
220 210 200 223 219 202 225 253 235 258 289 262 248 244 210 224 251 237 333 332 353 32 76 180 202 218 217 238 242 223 188 167 172 198 187 186 192 203 189 182 187 191 197 202 176 165 179 185 184 167 161 169 176 181
233 237 224 233 249 274 277 261 256 246 245 245 280 293 282 294 334 43 46 59 53 67 94 118 154 195 218 227 162 158 180 182 130 91 118 172 186 200 204 193 206 206 194 205 211 193 170 188 188 176 166 166 176 182
242 258 232 225 229 229 258 266 251 255 233 258 296 284 306 330 13 84 61 86 70 80 84 82 77 78 95 140 180 190 175 179 177 135 126 157 182 193 200 215 233 215 207 191 205 210 185 168 171 175 183 192 188 188
235 236 254 263 256 237 244 217 225 242 263 312 276 255 258 0 109 115 108 103 96 89 83 78 72 64 70 78 89 99 122 175 214 236 241 222 207 208 204 197 200 212 215 207 198 212 203 194 193 178 176 198 202 196
244 234 230 250 233 249 231 247 271 294 317 303 266 22 71 67 106 116 108 94 79 66 60 59 61 66 73 75 77 85 93 108 257 263 261 258 260 257 227 216 205 200 203 206 199 195 187 198 218 214 213 201 204 205
253 208 224 242 270 293 305 305 303 301 242 61 86 83 81 89 83 85 88 80 69 59 59 63 61 59 59 58 55 52 42 13 334 304 272 271 266 246 236 229 215 203 201 204 202 201 205 204 202 210 204 204 204 202
222 213 218 259 309 312 314 313 342 38 134 90 82 104 101 85 74 62 66 68 65 56 55 55 51 49 43 37 32 29 19 3 348 323 301 271 227 247 215 203 202 203 204 205 202 200 194 201 204 202 202 195 195 198
223 238 242 229 351 324 301 356 46 51 64 78 75 86 77 74 85 99 74 60 53 45 50 49 47 47 40 30 23 14 12 10 10 10 11 123 195 217 218 204 200 213 219 215 206 207 206 206 211 209 203 202 209 209